Havre-Saint-Pierre, Quebec

8:12 AM EDT on July 23, 2017 (GMT -0400)
Havre-Saint-Pierre

Weather History for CYGV - April, 2013

Change the Weather History Date:

Tuesday, April 30, 2013

  Actual Average Record
Temperature  
Mean Temperature 46 °F -  
Max Temperature 53 °F 49 °F 57 °F (2006)
Min Temperature 39 °F 33 °F 21 °F (2001)
Degree Days  
Heating Degree Days 19    
Moisture  
Dew Point 41 °F    
Average Humidity 95    
Maximum Humidity 100    
Minimum Humidity 72    
Precipitation  
Precipitation 0.00 in - - ()
Sea Level Pressure  
Sea Level Pressure 30.41 in    
Wind  
Wind Speed 4 mph ()    
Max Wind Speed 9 mph    
Max Gust Speed -    
Visibility 4.3 miles    
Events Fog , Rain    
Averages and records for this station are not official NWS values.
T = Trace of Precipitation, MM = Missing Value Source: Averaged Metar Reports

Daily Weather History Graph

Daily Weather History Graph

Search for Another Location

Airport or City:

Trip Planner

Search our weather history database for the weather conditions in past years. The results will help you decide how hot, cold, wet, or windy it might be!

Date:

Astronomy

Apr. 30, 2013 Rise Set
Actual Time 4:51 AM EDT 7:32 PM EDT
Civil Twilight 4:14 AM EDT 8:09 PM EDT
Nautical Twilight 3:27 AM EDT 8:57 PM EDT
Astronomical Twilight 2:31 AM EDT 9:54 PM EDT
Moon No Moon Rise 9:08 AM EDT (4/30)
Length of Visible Light 15h 55m
Length of Day
14h 41m
Waning Gibbous, 70% of the Moon is Illuminated
Apr 30
Waning Gibbous
May 2
Last Quarter
May 9
New
May 18
First Quarter
May 25
Full

Hourly Weather History & Observations

Time (EDT) Temp. Windchill Dew Point Humidity Pressure Visibility Wind Dir Wind Speed Gust Speed Precip Events Conditions
12:00 AM 39.2 °F 35.9 °F 39.2 °F 100% 30.38 in 0.5 mi NE 4.6 mph - N/A Fog , Rain Light Rain
12:26 AM 39.2 °F 35.9 °F 39.2 °F 100% 30.38 in 0.8 mi NE 4.6 mph - N/A   Mist
12:29 AM 39.2 °F 37.0 °F 39.2 °F 100% 30.38 in 0.8 mi NE 3.5 mph - N/A Rain Light Rain
12:50 AM 39.2 °F 35.9 °F 39.2 °F 100% 30.38 in 1.0 mi NE 4.6 mph - N/A Rain Light Rain
12:54 AM 39.2 °F 35.9 °F 39.2 °F 100% 30.38 in 1.0 mi NE 4.6 mph - N/A   Mist
1:00 AM 39.2 °F 35.9 °F 39.2 °F 100% 30.38 in 1.8 mi NNE 4.6 mph - N/A   Overcast
1:01 AM 39.2 °F 35.9 °F 39.2 °F 100% 30.38 in 2.0 mi NE 4.6 mph - N/A   Overcast
1:06 AM 39.2 °F 35.9 °F 39.2 °F 100% 30.38 in 3.0 mi NNE 4.6 mph - N/A   Overcast
1:13 AM 39.2 °F 35.9 °F 39.2 °F 100% 30.38 in 6.0 mi NNE 4.6 mph - N/A   Overcast
2:00 AM 41.0 °F 38.0 °F 39.2 °F 93% 30.38 in 9.0 mi ENE 4.6 mph - N/A   Overcast
3:00 AM 41.0 °F 38.0 °F 39.2 °F 93% 30.38 in 9.0 mi NE 4.6 mph - N/A   Overcast
3:06 AM 41.0 °F 38.0 °F 39.2 °F 93% 30.38 in 5.0 mi ENE 4.6 mph - N/A   Overcast
3:30 AM 41.0 °F 38.0 °F 39.2 °F 93% 30.38 in 2.5 mi NE 4.6 mph - N/A   Overcast
3:48 AM 41.0 °F 37.1 °F 39.2 °F 93% 30.38 in 1.8 mi NE 5.8 mph - N/A   Overcast
3:54 AM 41.0 °F 37.1 °F 39.2 °F 93% 30.38 in 2.0 mi NNE 5.8 mph - N/A   Overcast
4:00 AM 41.0 °F 38.0 °F 39.2 °F 93% 30.38 in 2.5 mi NNE 4.6 mph - N/A   Overcast
4:06 AM 41.0 °F 38.0 °F 39.2 °F 93% 30.38 in 2.5 mi NNE 4.6 mph - N/A   Overcast
4:26 AM 39.2 °F 35.0 °F 39.2 °F 100% 30.39 in 3.0 mi NNE 5.8 mph - N/A   Overcast
4:30 AM 41.0 °F 37.1 °F 39.2 °F 93% 30.39 in 6.0 mi NNE 5.8 mph - N/A   Overcast
4:43 AM 41.0 °F 37.1 °F 41.0 °F 100% 30.39 in 5.0 mi NNE 5.8 mph - N/A   Overcast
5:00 AM 41.0 °F 37.1 °F 41.0 °F 100% 30.39 in 5.0 mi NNE 5.8 mph - N/A   Overcast
5:21 AM 41.0 °F 39.0 °F 41.0 °F 100% 30.40 in 4.0 mi SE 3.5 mph - N/A   Overcast
5:29 AM 41.0 °F 38.0 °F 41.0 °F 100% 30.41 in 3.0 mi SSE 4.6 mph - N/A   Overcast
5:35 AM 41.0 °F 39.0 °F 41.0 °F 100% 30.41 in 2.5 mi SE 3.5 mph - N/A   Overcast
5:51 AM 39.2 °F 35.9 °F 39.2 °F 100% 30.41 in 1.8 mi SE 4.6 mph - N/A   Overcast
6:00 AM 39.2 °F - 39.2 °F 100% 30.41 in 1.0 mi Variable 2.3 mph - N/A   Overcast
6:17 AM 41.0 °F - 41.0 °F 100% 30.42 in 2.0 mi Variable 2.3 mph - N/A   Overcast
6:21 AM 41.0 °F - 41.0 °F 100% 30.42 in 3.0 mi Variable 2.3 mph - N/A   Overcast
6:36 AM 41.0 °F 39.0 °F 41.0 °F 100% 30.42 in 6.0 mi East 3.5 mph - N/A   Overcast
7:00 AM 42.8 °F 39.3 °F 42.8 °F 100% 30.42 in 9.0 mi ENE 5.8 mph - N/A   Overcast
8:00 AM 42.8 °F 38.0 °F 42.8 °F 100% 30.43 in 9.0 mi East 8.1 mph - N/A   Overcast
8:26 AM 44.6 °F 40.2 °F 42.8 °F 93% 30.43 in 5.0 mi East 8.1 mph - N/A   Overcast
8:42 AM 44.6 °F 41.4 °F 42.8 °F 93% 30.43 in 6.0 mi ESE 5.8 mph - N/A   Overcast
8:47 AM 44.6 °F 40.7 °F 42.8 °F 93% 30.43 in 5.0 mi East 6.9 mph - N/A   Overcast
9:00 AM 44.6 °F 42.2 °F 42.8 °F 93% 30.43 in 3.0 mi East 4.6 mph - N/A   Overcast
9:06 AM 44.6 °F 41.4 °F 42.8 °F 93% 30.43 in 2.0 mi SE 5.8 mph - N/A   Overcast
9:08 AM 44.6 °F 40.7 °F 42.8 °F 93% 30.43 in 1.8 mi SSE 6.9 mph - N/A   Overcast
9:14 AM 44.6 °F 41.4 °F 42.8 °F 93% 30.43 in 0.8 mi SE 5.8 mph - N/A   Overcast
9:32 AM 44.6 °F 41.4 °F 42.8 °F 93% 30.43 in 1.0 mi SE 5.8 mph - N/A   Mist
9:46 AM 44.6 °F 41.4 °F 42.8 °F 93% 30.43 in 2.0 mi ESE 5.8 mph - N/A   Overcast
10:00 AM 44.6 °F 40.7 °F 42.8 °F 93% 30.43 in 2.5 mi SSE 6.9 mph - N/A   Overcast
10:03 AM 44.6 °F 41.4 °F 42.8 °F 93% 30.43 in 3.0 mi SE 5.8 mph - N/A   Overcast
10:16 AM 44.6 °F 42.2 °F 42.8 °F 93% 30.43 in 6.0 mi SSE 4.6 mph - N/A   Overcast
10:46 AM 46.4 °F 43.5 °F 42.8 °F 87% 30.43 in 9.0 mi East 5.8 mph - N/A   Overcast
11:00 AM 46.4 °F 44.3 °F 42.8 °F 87% 30.43 in 9.0 mi South 4.6 mph - N/A   Overcast
11:22 AM 48.2 °F - 42.8 °F 82% 30.43 in 9.0 mi SE 4.6 mph - N/A   Overcast
12:00 PM 50.0 °F - 44.6 °F 82% 30.43 in 9.0 mi SSE 6.9 mph - N/A   Overcast
1:00 PM 51.8 °F - 44.6 °F 76% 30.41 in 9.0 mi SE 5.8 mph - N/A   Mostly Cloudy
1:03 PM 51.8 °F - 44.6 °F 76% 30.41 in 9.0 mi SE 6.9 mph - N/A   Scattered Clouds
2:00 PM 53.6 °F - 44.6 °F 72% 30.40 in 9.0 mi South 5.8 mph - N/A   Clear
3:00 PM 50.0 °F - 44.6 °F 82% 30.40 in 9.0 mi SSE 9.2 mph - N/A   Clear
4:00 PM 50.0 °F - 42.8 °F 76% 30.40 in 9.0 mi South 8.1 mph - N/A   Clear
5:00 PM 48.2 °F - 42.8 °F 82% 30.40 in 9.0 mi SSE 8.1 mph - N/A   Clear
6:00 PM 46.4 °F 43.5 °F 42.8 °F 87% 30.40 in 9.0 mi SSE 5.8 mph - N/A   Clear
7:00 PM 44.6 °F - 42.8 °F 93% 30.41 in 9.0 mi South 2.3 mph - N/A   Clear
7:33 PM 42.8 °F - 41.0 °F 93% 30.42 in 9.0 mi SSW 2.3 mph - N/A   Partly Cloudy
7:42 PM 42.8 °F - 41.0 °F 93% 30.42 in 9.0 mi SSW 2.3 mph - N/A   Mostly Cloudy
8:00 PM 41.0 °F 39.0 °F 41.0 °F 100% 30.42 in 9.0 mi South 3.5 mph - N/A   Mostly Cloudy
8:17 PM 41.0 °F - 41.0 °F 100% 30.43 in 4.0 mi Variable 2.3 mph - N/A   Overcast
8:19 PM 41.0 °F - 41.0 °F 100% 30.43 in 2.5 mi Calm Calm - N/A   Overcast
8:20 PM 41.0 °F - 41.0 °F 100% 30.43 in 1.8 mi Calm Calm - N/A   Overcast
8:23 PM 41.0 °F - 39.2 °F 93% 30.43 in 0.8 mi Calm Calm - N/A   Overcast
8:32 PM 41.0 °F - 41.0 °F 100% 30.43 in 0.4 mi Calm Calm - N/A Fog Fog
8:39 PM 39.2 °F - 39.2 °F 100% 30.43 in 0.2 mi Calm Calm - N/A Fog , Rain Light Rain
9:00 PM 39.2 °F - 39.2 °F 100% 30.43 in 0.1 mi WNW 2.3 mph - N/A Fog , Rain Light Rain
9:09 PM 39.2 °F - 39.2 °F 100% 30.43 in 0.4 mi Variable 2.3 mph - N/A Fog Fog
9:12 PM 39.2 °F - 39.2 °F 100% 30.43 in 0.4 mi Calm Calm - N/A Fog , Rain Light Rain
9:23 PM 41.0 °F - 39.2 °F 93% 30.43 in 1.0 mi Calm Calm - N/A Rain Light Rain
9:25 PM 39.2 °F - 39.2 °F 100% 30.43 in 2.0 mi Variable 2.3 mph - N/A Rain Light Rain
9:27 PM 39.2 °F - 39.2 °F 100% 30.43 in 3.0 mi Variable 2.3 mph - N/A   Overcast
9:29 PM 39.2 °F - 39.2 °F 100% 30.43 in 8.0 mi Variable 2.3 mph - N/A   Overcast
10:00 PM 39.2 °F - 37.4 °F 93% 30.43 in 9.0 mi ENE 2.3 mph - N/A   Mostly Cloudy
10:08 PM 39.2 °F 37.0 °F 37.4 °F 93% 30.43 in 9.0 mi ENE 3.5 mph - N/A   Mostly Cloudy
10:35 PM 39.2 °F 37.0 °F 37.4 °F 93% 30.43 in 4.0 mi NE 3.5 mph - N/A   Scattered Clouds
10:39 PM 39.2 °F 35.9 °F 37.4 °F 93% 30.43 in 3.0 mi NE 4.6 mph - N/A   Mostly Cloudy
10:40 PM 39.2 °F 37.0 °F 39.2 °F 100% 30.43 in 2.0 mi NE 3.5 mph - N/A   Mostly Cloudy
10:41 PM 39.2 °F 37.0 °F 39.2 °F 100% 30.43 in 1.8 mi NE 3.5 mph - N/A   Mostly Cloudy
10:43 PM 39.2 °F 37.0 °F 39.2 °F 100% 30.43 in 1.2 mi NE 3.5 mph - N/A Rain Light Rain
10:46 PM 39.2 °F 35.9 °F 39.2 °F 100% 30.43 in 0.8 mi NE 4.6 mph - N/A Rain Light Rain
10:53 PM 39.2 °F 35.9 °F 39.2 °F 100% 30.43 in 0.8 mi NE 4.6 mph - N/A   Mostly Cloudy
10:56 PM 39.2 °F 37.0 °F 39.2 °F 100% 30.43 in 1.2 mi NNE 3.5 mph - N/A   Mostly Cloudy
10:58 PM 39.2 °F 35.9 °F 39.2 °F 100% 30.43 in 2.5 mi NNE 4.6 mph - N/A   Mostly Cloudy
10:59 PM 39.2 °F 35.9 °F 39.2 °F 100% 30.43 in 3.0 mi NNE 4.6 mph - N/A   Mostly Cloudy
11:00 PM 39.2 °F 37.0 °F 39.2 °F 100% 30.43 in 6.0 mi NE 3.5 mph - N/A   Mostly Cloudy
11:01 PM 39.2 °F - 39.2 °F 100% 30.43 in 9.0 mi NE 2.3 mph - N/A   Scattered Clouds